sat.trackr.live / text

‹ back to catalog

STARLINK-36132

NORAD 67028 · 2025-293AB

PAYLOAD ACTIVE UNKNOWN

§ Identity

Operator
Country
US
Launch date
2025-12-10
Launch site
AFWTR
Launch vehicle
Mass (kg)
RCS (m²)

Purposes: comms

External: N2YO · Heavens-Above · Gunter

§ Orbital elements

Epoch: 2026-05-25T01:20:39.342624Z

Period
96.11 min
Inclination
70.0005°
Eccentricity
0.0003370
Mean motion
14.98335726 rev/d
Perigee alt
569.7 km
Apogee alt
574.4 km
Semi-major
6,950.2 km
B*
2.0547e-4
RAAN
262.0286°
Arg perigee
269.8864°
Mean anomaly
90.1909°
Rev number
2,632

§ Raw data

STARLINK-361321 67028U 25293AB  26145.05601091  .00002360  00000+0  20547-3 0  99952 67028  70.0005 262.0286 0003370 269.8864  90.1909 14.98335726 26328

JSON: /api/v1/satellites/67028 · /tle

For live sub-satellite position, see the globe view (requires WebGL).

§ Visibility from observer

Set your observer location to see the next 7 days of passes ≥ 10°. The values pass through the URL so the page stays shareable.

No JS? Fill the form by hand. The geolocation button needs JavaScript.